Location: Lansingburgh
(42.7845°N, 73.6696°W)
Time: 14:04:29
(UTC+00:00)

Cosmos 2263 Rocket - Pass Details

Date: 24 January 2020
Orbit: 823 x 849 km, 71.0° (Epoch: 22 February)

Event Time Altitude Azimuth Distance (km) Brightness Sun altitude
Rises 22:55:07 0° 144° (SE) 3,344 5.1 -10.8°
Reaches altitude 10° 22:59:43 10° 109° (ESE) 2,421 4.1 -11.6°
Enters shadow 22:59:59 10° 106° (ESE) 2,401 4.1 -11.7°
